This is the latest recevied weather packets stored in our database for station/object KA8DUX-2. If no packets are shown the sender has not sent any weather packets the latest 10 day(s).
| Time | Temp. | Humidity | Pressure | Rain* | Wind** | Luminosity | Snow |
|---|---|---|---|---|---|---|---|
| 1778066629 | 3.33° C | 79% | 1010.1 hPa | 0 mm | - | 21 W/m² | - |
| 1778066326 | 3.33° C | 80% | 1009.9 hPa | 0 mm | - | 19 W/m² | - |
| 1778066025 | 2.78° C | 81% | 1009.9 hPa | 0 mm | - | 16 W/m² | - |
| 1778065722 | 2.78° C | 82% | 1009.9 hPa | 0 mm | - | 17 W/m² | - |
| 1778065419 | 2.22° C | 83% | 1009.8 hPa | 0 mm | - | 17 W/m² | - |
| 1778065116 | 2.22° C | 84% | 1009.8 hPa | 0 mm | - | 18 W/m² | - |
| 1778064812 | 2.22° C | 84% | 1010 hPa | 0 mm | - | 15 W/m² | - |
| 1778064510 | 2.22° C | 86% | 1009.9 hPa | 0 mm | - | 14 W/m² | - |
| 1778064207 | 1.67° C | 87% | 1010.1 hPa | 0 mm | - | 8 W/m² | - |
| 1778063905 | 1.67° C | 87% | 1009.9 hPa | 0 mm | - | 5 W/m² | - |
| 1778063602 | 1.67° C | 87% | 1010 hPa | 0 mm | - | 3 W/m² | - |
| 1778063299 | 1.67° C | 87% | 1009.8 hPa | 0 mm | - | 1 W/m² | - |
| 1778062997 | 1.67° C | 87% | 1009.8 hPa | 0 mm | - | 0 W/m² | - |
| 1778062694 | 1.67° C | 87% | 1010 hPa | 0 mm | - | 0 W/m² | - |
| 1778062390 | 2.22° C | 87% | 1009.9 hPa | 0 mm | - | 0 W/m² | - |
| 1778062088 | 1.67° C | 87% | 1009.7 hPa | 0 mm | - | 0 W/m² | - |
| 1778061787 | 1.67° C | 87% | 1010 hPa | 0 mm | - | 0 W/m² | - |
| 1778061484 | 1.67° C | 87% | 1009.7 hPa | 0 mm | - | 0 W/m² | - |
| 1778061181 | 2.22° C | 87% | 1009.7 hPa | 0 mm | - | 0 W/m² | - |
| 1778060878 | 2.22° C | 87% | 1009.7 hPa | 0 mm | - | 0 W/m² | - |
| 1778060576 | 2.22° C | 87% | 1009.5 hPa | 0 mm | - | 0 W/m² | - |
| 1778060274 | 2.22° C | 87% | 1009.6 hPa | 0 mm | - | 0 W/m² | - |
| 1778059971 | 2.22° C | 87% | 1009.4 hPa | 0 mm | - | 0 W/m² | - |
| 1778059669 | 2.22° C | 86% | 1009.4 hPa | 0 mm | - | 0 W/m² | - |
| 1778059367 | 2.22° C | 86% | 1009.3 hPa | 0 mm | - | 0 W/m² | - |
* Rain latest hour (hover to see other rain measurements)
** Current wind speed in m/s (hover to see current wind gust speed)